Location: Newark
(33.6439°N, 114.9881°W)
Time: 08:56:21
(UTC+00:00)

A-11 Canister half - Pass Details

Date: 24 August 2019
Orbit: 1527 x 1682 km, 47.3° (Epoch: 15 September)

Event Time Altitude Azimuth Distance (km) Brightness Sun altitude
Rises 00:24:11 0° 304° (NW) 4,930 12.5 22.5°
Reaches altitude 10° 00:27:26 10° 309° (NW) 3,946 12.1 21.8°
Maximum altitude 00:37:29 61° 28° (NNE) 1,868 9.6 19.7°
Drops below altitude 10° 00:47:23 10° 108° (ESE) 3,893 10.6 17.6°
Sets 00:50:33 0° 112° (ESE) 4,862 11.0 17.0°
